EN

Hourly Weather Labedz

Today, 5 August, Thursday

Time Temperature Precipitation Wind Pressure Humidity
00:00 +14°C° 0 mm 2 mps 751 mmHg 82%
01:00 +14°C° 0 mm 2 mps 751 mmHg 83%
02:00 +14°C° 0 mm 2 mps 751 mmHg 83%
03:00 +13°C° 0 mm 2 mps 751 mmHg 83%
04:00 +13°C° 0 mm 2 mps 751 mmHg 84%
05:00 +15°C° 0 mm 2 mps 750 mmHg 79%
06:00 +16°C° 0 mm 2 mps 750 mmHg 74%
07:00 +17°C° 0 mm 3 mps 750 mmHg 69%
08:00 +19°C° 0 mm 3 mps 750 mmHg 62%
09:00 +20°C° 0 mm 3 mps 750 mmHg 55%
10:00 +22°C° 0 mm 3 mps 750 mmHg 49%
11:00 +24°C° 0 mm 3 mps 749 mmHg 46%
12:00 +24°C° 0 mm 3 mps 749 mmHg 43%
13:00 +25°C° 0 mm 4 mps 749 mmHg 40%
14:00 +25°C° 0 mm 3 mps 748 mmHg 43%
15:00 +24°C° 0 mm 3 mps 748 mmHg 45%
16:00 +24°C° 0 mm 3 mps 748 mmHg 48%
17:00 +21°C° 0.2 mm 3 mps 747 mmHg 56%
18:00 +20°C° 0.2 mm 3 mps 747 mmHg 65%
19:00 +18°C° 0.2 mm 3 mps 747 mmHg 74%
20:00 +18°C° 0.1 mm 2 mps 747 mmHg 77%
21:00 +17°C° 0.1 mm 2 mps 747 mmHg 80%
22:00 +17°C° 0.1 mm 2 mps 747 mmHg 83%
23:00 +16°C° 0.1 mm 2 mps 746 mmHg 84%

Tomorrow, 6 August, Friday

Time Temperature Precipitation Wind Pressure Humidity
00:00 +16°C° 0.1 mm 3 mps 746 mmHg 85%
01:00 +16°C° 0.1 mm 3 mps 746 mmHg 86%
02:00 +16°C° 0.3 mm 3 mps 746 mmHg 88%
03:00 +16°C° 0.3 mm 3 mps 745 mmHg 89%
04:00 +14°C° 0.3 mm 3 mps 745 mmHg 90%
05:00 +15°C° 0 mm 4 mps 745 mmHg 86%
06:00 +15°C° 0 mm 4 mps 745 mmHg 82%
07:00 +15°C° 0 mm 4 mps 745 mmHg 77%
08:00 +17°C° 0 mm 4 mps 745 mmHg 70%
09:00 +17°C° 0 mm 5 mps 745 mmHg 63%
10:00 +19°C° 0 mm 5 mps 745 mmHg 56%
11:00 +19°C° 0 mm 5 mps 745 mmHg 55%
12:00 +20°C° 0 mm 5 mps 745 mmHg 53%
13:00 +20°C° 0 mm 4 mps 745 mmHg 52%
14:00 +20°C° 0 mm 4 mps 745 mmHg 55%
15:00 +19°C° 0 mm 4 mps 745 mmHg 57%
16:00 +19°C° 0 mm 4 mps 745 mmHg 59%
17:00 +18°C° 0 mm 3 mps 745 mmHg 64%
18:00 +17°C° 0 mm 2 mps 745 mmHg 68%
19:00 +18°C° 0 mm 1 mps 745 mmHg 73%
20:00 +16°C° 0 mm 1 mps 745 mmHg 76%
21:00 +15°C° 0 mm 1 mps 745 mmHg 78%
22:00 +14°C° 0 mm 2 mps 746 mmHg 81%
23:00 +14°C° 0 mm 2 mps 745 mmHg 83%

Day after tomorrow, 7 August, Saturday

Time Temperature Precipitation Wind Pressure Humidity
00:00 +13°C° 0 mm 2 mps 745 mmHg 85%
01:00 +13°C° 0 mm 2 mps 745 mmHg 86%
02:00 +13°C° 0 mm 2 mps 745 mmHg 87%
03:00 +12°C° 0 mm 2 mps 745 mmHg 88%
04:00 +12°C° 0 mm 2 mps 745 mmHg 88%
05:00 +14°C° 0 mm 2 mps 746 mmHg 81%
06:00 +15°C° 0 mm 2 mps 746 mmHg 73%
07:00 +17°C° 0 mm 2 mps 746 mmHg 66%
08:00 +19°C° 0 mm 2 mps 746 mmHg 60%
09:00 +21°C° 0 mm 3 mps 746 mmHg 54%
10:00 +22°C° 0 mm 3 mps 746 mmHg 48%
11:00 +24°C° 0 mm 3 mps 746 mmHg 47%
12:00 +25°C° 0 mm 3 mps 746 mmHg 46%
13:00 +26°C° 0 mm 3 mps 746 mmHg 45%
14:00 +26°C° 0 mm 3 mps 746 mmHg 47%
15:00 +26°C° 0 mm 2 mps 746 mmHg 48%
16:00 +26°C° 0 mm 2 mps 746 mmHg 50%
17:00 +25°C° 0 mm 2 mps 746 mmHg 53%
18:00 +24°C° 0 mm 2 mps 746 mmHg 56%
19:00 +22°C° 0 mm 3 mps 747 mmHg 59%
20:00 +21°C° 0 mm 2 mps 747 mmHg 62%
21:00 +20°C° 0 mm 2 mps 747 mmHg 64%
22:00 +19°C° 0 mm 2 mps 747 mmHg 67%
23:00 +18°C° 0 mm 2 mps 747 mmHg 68%

8 August, Sunday

Time Temperature Precipitation Wind Pressure Humidity
00:00 +18°C° 0 mm 2 mps 747 mmHg 70%
01:00 +17°C° 0 mm 3 mps 747 mmHg 71%
02:00 +17°C° 0 mm 3 mps 747 mmHg 73%
03:00 +17°C° 0 mm 3 mps 746 mmHg 74%
04:00 +17°C° 0 mm 4 mps 746 mmHg 76%
05:00 +18°C° 0 mm 3 mps 746 mmHg 75%
06:00 +19°C° 0 mm 3 mps 746 mmHg 75%
07:00 +19°C° 0 mm 3 mps 745 mmHg 74%
08:00 +19°C° 0.1 mm 3 mps 746 mmHg 75%
09:00 +19°C° 0.1 mm 3 mps 746 mmHg 77%
10:00 +19°C° 0.1 mm 3 mps 746 mmHg 78%
11:00 +20°C° 0.1 mm 3 mps 747 mmHg 77%
12:00 +21°C° 0.1 mm 4 mps 747 mmHg 75%
13:00 +21°C° 0.1 mm 4 mps 748 mmHg 74%
14:00 +23°C° 0.1 mm 4 mps 748 mmHg 66%
15:00 +25°C° 0.1 mm 4 mps 748 mmHg 58%
16:00 +26°C° 0.1 mm 4 mps 748 mmHg 49%
17:00 +25°C° 0 mm 4 mps 749 mmHg 52%
18:00 +23°C° 0 mm 4 mps 749 mmHg 54%
19:00 +22°C° 0 mm 3 mps 750 mmHg 56%
20:00 +21°C° 0 mm 3 mps 750 mmHg 58%
21:00 +20°C° 0 mm 3 mps 750 mmHg 60%
22:00 +19°C° 0 mm 2 mps 751 mmHg 62%
23:00 +18°C° 0 mm 3 mps 751 mmHg 63%

9 August, Monday

Time Temperature Precipitation Wind Pressure Humidity
00:00 +18°C° 0 mm 3 mps 751 mmHg 65%
01:00 +18°C° 0 mm 3 mps 751 mmHg 66%
02:00 +18°C° 0.2 mm 4 mps 752 mmHg 74%
03:00 +17°C° 0.2 mm 4 mps 752 mmHg 81%
04:00 +15°C° 0.2 mm 4 mps 752 mmHg 89%
05:00 +17°C° 0.1 mm 4 mps 752 mmHg 85%
06:00 +18°C° 0.1 mm 4 mps 752 mmHg 81%
07:00 +18°C° 0.1 mm 4 mps 753 mmHg 77%
08:00 +19°C° 0.1 mm 4 mps 753 mmHg 71%
09:00 +21°C° 0.1 mm 5 mps 753 mmHg 64%
10:00 +22°C° 0.1 mm 5 mps 753 mmHg 58%
11:00 +22°C° 0.2 mm 5 mps 753 mmHg 54%
12:00 +23°C° 0.2 mm 5 mps 753 mmHg 50%
13:00 +25°C° 0.2 mm 5 mps 753 mmHg 46%
14:00 +23°C° 0 mm 4 mps 754 mmHg 48%
15:00 +23°C° 0 mm 4 mps 754 mmHg 50%
16:00 +24°C° 0 mm 3 mps 754 mmHg 51%
17:00 +22°C° 0 mm 3 mps 754 mmHg 54%
18:00 +21°C° 0 mm 3 mps 754 mmHg 56%
19:00 +20°C° 0 mm 3 mps 754 mmHg 58%
20:00 +20°C° 0 mm 3 mps 754 mmHg 59%
21:00 +19°C° 0 mm 3 mps 754 mmHg 59%
22:00 +18°C° 0 mm 3 mps 755 mmHg 60%
23:00 +18°C° 0 mm 3 mps 755 mmHg 61%

10 August, Tuesday

Time Temperature Precipitation Wind Pressure Humidity
00:00 +17°C° 0 mm 3 mps 755 mmHg 62%
01:00 +17°C° 0 mm 3 mps 755 mmHg 63%
02:00 +16°C° 0 mm 3 mps 755 mmHg 67%
03:00 +15°C° 0 mm 2 mps 755 mmHg 72%
04:00 +15°C° 0 mm 2 mps 755 mmHg 76%
05:00 +16°C° 0 mm 3 mps 755 mmHg 73%
06:00 +17°C° 0 mm 3 mps 755 mmHg 70%
07:00 +18°C° 0 mm 3 mps 756 mmHg 67%
08:00 +20°C° 0 mm 3 mps 756 mmHg 60%
09:00 +21°C° 0 mm 4 mps 756 mmHg 54%
10:00 +23°C° 0 mm 4 mps 756 mmHg 48%
11:00 +23°C° 0 mm 4 mps 755 mmHg 49%
12:00 +24°C° 0 mm 3 mps 755 mmHg 50%
13:00 +24°C° 0 mm 3 mps 755 mmHg 50%
14:00 +24°C° 0 mm 3 mps 755 mmHg 49%
15:00 +24°C° 0 mm 3 mps 755 mmHg 48%
16:00 +24°C° 0 mm 3 mps 755 mmHg 47%
17:00 +22°C° 0 mm 3 mps 755 mmHg 51%
18:00 +21°C° 0 mm 3 mps 755 mmHg 54%
19:00 +20°C° 0 mm 2 mps 755 mmHg 58%
20:00 +19°C° 0 mm 2 mps 755 mmHg 59%
21:00 +20°C° 0 mm 1 mps 755 mmHg 61%
22:00 +19°C° 0 mm 1 mps 755 mmHg 63%
23:00 +19°C° 0 mm 1 mps 755 mmHg 65%
Show more